QTR21D OTHH-HECA

Flight info

Callsign QTR21D
Flight time N/A
Altitude 40000
Route TULUB2A/34L TULUB B457 NARMI N697 HIL T540 ENABI L550 NOVPA N697 MENLI L677 CVO
Aircraft A35K/H-SDE2E3GHIJ3J4J5LM1ORWXY/LB1D1

Departure

Time N/A
Airport Hamad International Airport (OTHH)

Arrival

Time 2026-05-05 12:39
Airport Cairo International Airport (HECA)
Time Latitude Longitude Altitude Speed Heading
2026-05-05 11:42 28.55322 37.59707 39989 ft 429 kts 275°
2026-05-05 11:43 28.56527 37.53056 39983 ft 430 kts 277°
2026-05-05 11:43 28.57992 37.46444 39985 ft 431 kts 278°
2026-05-05 11:44 28.59553 37.39851 39984 ft 431 kts 278°
2026-05-05 11:44 28.61128 37.33272 39982 ft 430 kts 278°
2026-05-05 11:45 28.62692 37.26703 39982 ft 430 kts 278°
2026-05-05 11:45 28.64250 37.20124 39982 ft 430 kts 278°
2026-05-05 11:46 28.65797 37.13557 39983 ft 429 kts 278°
2026-05-05 11:46 28.67332 37.07034 39981 ft 429 kts 278°
2026-05-05 11:47 28.68875 37.00464 39978 ft 429 kts 278°
2026-05-05 11:47 28.70414 36.93893 39981 ft 429 kts 278°
2026-05-05 11:48 28.72714 36.84042 39980 ft 429 kts 278°
2026-05-05 11:48 28.74242 36.77480 39981 ft 429 kts 278°
2026-05-05 11:49 28.75759 36.70950 39982 ft 428 kts 278°
2026-05-05 11:49 28.77279 36.64390 39978 ft 428 kts 278°
2026-05-05 11:50 28.78795 36.57832 39982 ft 427 kts 279°
2026-05-05 11:50 28.80305 36.51285 39982 ft 427 kts 279°
2026-05-05 11:51 28.81811 36.44736 39980 ft 427 kts 279°
2026-05-05 11:51 28.83315 36.38183 39982 ft 427 kts 279°
2026-05-05 11:52 28.84807 36.31668 39979 ft 427 kts 279°
2026-05-05 11:52 28.86308 36.25094 39980 ft 427 kts 279°
2026-05-05 11:53 28.87805 36.18527 39975 ft 428 kts 279°
2026-05-05 11:53 28.89300 36.11949 39976 ft 429 kts 279°
2026-05-05 11:54 28.90797 36.05346 39979 ft 430 kts 279°
2026-05-05 11:54 28.92298 35.98711 39976 ft 432 kts 279°
2026-05-05 11:55 28.93789 35.92106 39978 ft 432 kts 279°
2026-05-05 11:55 28.95286 35.85462 39983 ft 432 kts 279°
2026-05-05 11:56 28.96777 35.78825 39986 ft 431 kts 279°
2026-05-05 11:56 28.98261 35.72201 39988 ft 430 kts 279°
2026-05-05 11:57 28.99739 35.65586 39991 ft 429 kts 279°
2026-05-05 11:57 29.01201 35.59022 39994 ft 428 kts 279°
2026-05-05 11:58 29.02670 35.52416 39999 ft 428 kts 279°
2026-05-05 11:58 29.04134 35.45818 40009 ft 428 kts 279°
2026-05-05 11:59 29.05594 35.39227 40002 ft 427 kts 279°
2026-05-05 11:59 29.07050 35.32631 40024 ft 427 kts 279°
2026-05-05 12:00 29.08490 35.26083 40021 ft 427 kts 279°
2026-05-05 12:00 29.09933 35.19498 40018 ft 426 kts 279°
2026-05-05 12:01 29.11374 35.12923 40020 ft 426 kts 279°
2026-05-05 12:01 29.12812 35.06345 40014 ft 426 kts 279°
2026-05-05 12:02 29.14244 34.99773 40018 ft 426 kts 279°
2026-05-05 12:02 29.15674 34.93198 40016 ft 426 kts 279°
2026-05-05 12:03 29.17093 34.86657 40012 ft 426 kts 279°
2026-05-05 12:03 29.18515 34.80080 40009 ft 426 kts 279°
2026-05-05 12:04 29.19938 34.73486 40014 ft 426 kts 279°
2026-05-05 12:04 29.21358 34.66889 40015 ft 426 kts 279°
2026-05-05 12:05 29.22762 34.60348 40017 ft 426 kts 279°
2026-05-05 12:05 29.24174 34.53748 40024 ft 427 kts 279°
2026-05-05 12:06 29.25585 34.47136 40027 ft 427 kts 279°
2026-05-05 12:06 29.26995 34.40525 40034 ft 427 kts 279°
2026-05-05 12:07 29.28404 34.33893 40035 ft 428 kts 279°
2026-05-05 12:07 29.29810 34.27268 40030 ft 428 kts 279°
2026-05-05 12:08 29.31210 34.20682 40039 ft 428 kts 279°
2026-05-05 12:08 29.32608 34.14066 40047 ft 427 kts 279°
2026-05-05 12:09 29.33998 34.07459 40045 ft 426 kts 279°
2026-05-05 12:09 29.35385 34.00840 40050 ft 427 kts 279°
2026-05-05 12:10 29.36772 33.94212 40050 ft 426 kts 279°
2026-05-05 12:10 29.38147 33.87639 40052 ft 426 kts 280°
2026-05-05 12:11 29.39529 33.81032 40053 ft 426 kts 280°
2026-05-05 12:11 29.40903 33.74427 40061 ft 425 kts 279°
2026-05-05 12:12 29.42273 33.67807 40054 ft 425 kts 279°
2026-05-05 12:12 29.43627 33.61242 40058 ft 425 kts 280°
2026-05-05 12:13 29.44986 33.54639 40056 ft 425 kts 280°
2026-05-05 12:13 29.46338 33.48062 39639 ft 418 kts 280°
2026-05-05 12:14 29.46996 33.44862 38928 ft 408 kts 280°
2026-05-05 12:14 29.47646 33.41692 38298 ft 408 kts 280°
2026-05-05 12:14 29.48293 33.38522 37720 ft 406 kts 280°
2026-05-05 12:14 29.48935 33.35373 37184 ft 403 kts 280°
2026-05-05 12:15 29.49572 33.32245 36630 ft 402 kts 280°
2026-05-05 12:15 29.50206 33.29124 36084 ft 400 kts 280°
2026-05-05 12:15 29.50837 33.26017 35515 ft 400 kts 280°
2026-05-05 12:15 29.51469 33.22901 34938 ft 400 kts 280°
2026-05-05 12:16 29.52100 33.19787 34344 ft 400 kts 280°
2026-05-05 12:16 29.52730 33.16671 33617 ft 403 kts 280°
2026-05-05 12:16 29.53364 33.13531 32915 ft 403 kts 280°
2026-05-05 12:16 29.53997 33.10389 32233 ft 403 kts 281°
2026-05-05 12:17 29.54509 33.07243 31539 ft 409 kts 276°
2026-05-05 12:17 29.54718 33.03962 30661 ft 415 kts 271°
2026-05-05 12:17 29.54723 33.00595 30123 ft 427 kts 270°
2026-05-05 12:17 29.54730 32.97163 29515 ft 429 kts 272°
2026-05-05 12:18 29.54998 32.93771 28805 ft 424 kts 278°
2026-05-05 12:18 29.55530 32.90450 28138 ft 420 kts 281°
2026-05-05 12:18 29.56177 32.87201 27578 ft 414 kts 282°
2026-05-05 12:18 29.56880 32.84016 27004 ft 409 kts 283°
2026-05-05 12:19 29.57603 32.80873 26467 ft 403 kts 283°
2026-05-05 12:19 29.58322 32.77775 25917 ft 399 kts 283°
2026-05-05 12:19 29.59031 32.74696 25418 ft 400 kts 283°
2026-05-05 12:19 29.59732 32.71611 24836 ft 397 kts 283°
2026-05-05 12:20 29.60412 32.68590 24290 ft 393 kts 283°
2026-05-05 12:20 29.61096 32.65528 23746 ft 389 kts 283°
2026-05-05 12:20 29.61754 32.62569 23158 ft 384 kts 283°
2026-05-05 12:20 29.62410 32.59611 22612 ft 379 kts 283°
2026-05-05 12:21 29.63055 32.56696 22095 ft 373 kts 283°
2026-05-05 12:21 29.63688 32.53810 21576 ft 369 kts 283°
2026-05-05 12:21 29.64313 32.50942 21067 ft 378 kts 283°
2026-05-05 12:21 29.64964 32.47948 20520 ft 391 kts 283°
2026-05-05 12:22 29.65404 32.45938 20145 ft 393 kts 283°
2026-05-05 12:22 29.66078 32.42898 19543 ft 391 kts 284°
2026-05-05 12:22 29.66851 32.39896 18862 ft 390 kts 286°
2026-05-05 12:22 29.67646 32.36926 18248 ft 387 kts 286°
2026-05-05 12:23 29.68448 32.33977 17633 ft 386 kts 287°
2026-05-05 12:23 29.69253 32.31040 17056 ft 385 kts 287°
2026-05-05 12:23 29.70057 32.28114 16463 ft 383 kts 287°
2026-05-05 12:23 29.70865 32.25204 15881 ft 380 kts 287°
2026-05-05 12:24 29.71669 32.22312 15294 ft 378 kts 287°
2026-05-05 12:24 29.72470 32.19425 14702 ft 376 kts 287°
2026-05-05 12:24 29.73261 32.16565 14110 ft 374 kts 287°
2026-05-05 12:24 29.74036 32.13752 13498 ft 373 kts 287°
2026-05-05 12:25 29.74819 32.10908 12883 ft 372 kts 287°
2026-05-05 12:25 29.75600 32.08066 12283 ft 371 kts 288°
2026-05-05 12:25 29.76375 32.05238 11685 ft 370 kts 288°
2026-05-05 12:25 29.77151 32.02416 11319 ft 370 kts 288°
2026-05-05 12:26 29.77928 31.99587 11194 ft 370 kts 288°
2026-05-05 12:26 29.78703 31.96762 11086 ft 369 kts 288°
2026-05-05 12:26 29.79473 31.93949 10964 ft 369 kts 288°
2026-05-05 12:26 29.80231 31.91175 10832 ft 353 kts 288°
2026-05-05 12:27 29.80947 31.88538 10672 ft 337 kts 288°
2026-05-05 12:27 29.81640 31.85999 10499 ft 333 kts 288°
2026-05-05 12:27 29.82334 31.83451 10083 ft 333 kts 288°
2026-05-05 12:27 29.83028 31.80905 9646 ft 333 kts 288°
2026-05-05 12:28 29.83721 31.78363 9220 ft 332 kts 288°
2026-05-05 12:28 29.84408 31.75840 8828 ft 329 kts 288°
2026-05-05 12:28 29.85089 31.73336 8473 ft 326 kts 288°
2026-05-05 12:28 29.85757 31.70876 8120 ft 324 kts 288°
2026-05-05 12:29 29.86415 31.68444 7881 ft 311 kts 288°
2026-05-05 12:29 29.87049 31.66112 7561 ft 295 kts 288°
2026-05-05 12:29 29.87650 31.63892 7072 ft 287 kts 288°
2026-05-05 12:29 29.88244 31.61707 6765 ft 284 kts 288°
2026-05-05 12:30 29.88834 31.59535 6457 ft 282 kts 288°
2026-05-05 12:30 29.89412 31.57402 6125 ft 275 kts 288°
2026-05-05 12:30 29.89975 31.55315 5821 ft 271 kts 288°
2026-05-05 12:30 29.90526 31.53254 5503 ft 266 kts 288°
2026-05-05 12:31 29.91065 31.51246 5251 ft 258 kts 288°
2026-05-05 12:31 29.91587 31.49312 5040 ft 249 kts 288°
2026-05-05 12:31 29.92102 31.47410 4670 ft 248 kts 288°
2026-05-05 12:31 29.92615 31.45519 4357 ft 245 kts 288°
2026-05-05 12:32 29.93122 31.43647 4096 ft 244 kts 288°
2026-05-05 12:32 29.93619 31.41792 3888 ft 240 kts 288°
2026-05-05 12:32 29.94093 31.40011 3730 ft 229 kts 287°
2026-05-05 12:32 29.94552 31.38297 3326 ft 220 kts 288°
2026-05-05 12:33 29.94990 31.36664 3037 ft 205 kts 287°
2026-05-05 12:33 29.95397 31.35140 2731 ft 194 kts 288°
2026-05-05 12:33 29.95780 31.33694 2658 ft 181 kts 287°
2026-05-05 12:33 29.96136 31.32347 2528 ft 170 kts 288°
2026-05-05 12:34 29.96471 31.31069 2494 ft 164 kts 288°
2026-05-05 12:34 29.96791 31.29808 2480 ft 164 kts 288°
2026-05-05 12:34 29.97371 31.28706 2486 ft 163 kts 321°
2026-05-05 12:34 29.98434 31.28334 2494 ft 160 kts 359°
2026-05-05 12:35 29.99488 31.28579 2479 ft 154 kts 12°
2026-05-05 12:35 30.00509 31.28972 2495 ft 156 kts 14°
2026-05-05 12:35 30.01531 31.29398 2499 ft 155 kts 16°
2026-05-05 12:35 30.02478 31.29922 2468 ft 149 kts 30°
2026-05-05 12:36 30.03223 31.30767 2426 ft 152 kts 45°
2026-05-05 12:36 30.03889 31.31730 2239 ft 154 kts 45°
2026-05-05 12:36 30.04583 31.32649 2058 ft 151 kts 44°
2026-05-05 12:36 30.05282 31.33569 1797 ft 151 kts 45°
2026-05-05 12:37 30.05949 31.34482 1630 ft 146 kts 46°
2026-05-05 12:37 30.06602 31.35368 1373 ft 145 kts 43°
2026-05-05 12:37 30.07263 31.36244 1175 ft 145 kts 42°
2026-05-05 12:37 30.07936 31.37109 992 ft 146 kts 46°
2026-05-05 12:38 30.08587 31.38007 805 ft 144 kts 44°
2026-05-05 12:38 30.09248 31.38874 627 ft 143 kts 43°
2026-05-05 12:38 30.09894 31.39733 455 ft 144 kts 43°
2026-05-05 12:38 30.10540 31.40584 383 ft 130 kts 50°
2026-05-05 12:39 30.10980 31.41169 380 ft 64 kts 50°
2026-05-05 12:39 30.11263 31.41504 379 ft 47 kts 34°
2026-05-05 12:39 30.11489 31.41621 381 ft 13 kts
2026-05-05 12:39 30.11539 31.41611 381 ft 7 kts 334°
2026-05-05 12:40 30.11556 31.41563 381 ft 7 kts 266°
2026-05-05 12:40 30.11532 31.41511 381 ft 8 kts 234°
2026-05-05 12:40 30.11490 31.41453 381 ft 11 kts 229°
2026-05-05 12:40 30.11433 31.41376 381 ft 14 kts 229°
2026-05-05 12:41 30.11361 31.41282 381 ft 17 kts 229°
2026-05-05 12:41 30.11271 31.41162 381 ft 23 kts 229°
2026-05-05 12:41 30.11159 31.41012 381 ft 26 kts 229°
2026-05-05 12:41 30.11070 31.40867 381 ft 22 kts 264°
2026-05-05 12:42 30.11074 31.40715 380 ft 11 kts 278°
2026-05-05 12:42 30.11084 31.40691 380 ft 1 kts 300°
2026-05-05 12:42 30.11066 31.40647 380 ft 5 kts 212°
2026-05-05 12:42 30.10966 31.40592 380 ft 25 kts 221°
2026-05-05 12:43 30.10935 31.40417 380 ft 24 kts 287°
2026-05-05 12:43 30.10977 31.40267 380 ft 15 kts 293°
2026-05-05 12:43 30.11024 31.40227 380 ft 4 kts
2026-05-05 12:43 30.11059 31.40234 380 ft 6 kts 12°
2026-05-05 12:44 30.11072 31.40237 380 ft 0 kts 12°
2026-05-05 12:45 30.11071 31.40237 380 ft 0 kts 12°